www.pogodaiklimat.ru

Погода и климат >> Архив погоды >> Германия >> Leuchtturm Alte Weser


ПОГОДА в Leuchtturm Alte Weser

  • Прогноз погоды в Leuchtturm Alte Weser
  • Монитор погоды в Leuchtturm Alte Weser
  • Климат города

АРХИВ ПОГОДЫ в Leuchtturm Alte Weser

Время (UTC), дата Ветер
(напр.,м/с)
 
Видим.   Явления Облачность Т
(С)
Тd
(С)
f
(%)
Тe
(С)
Тes
(С)
Комфортность P
(гПа)
Po
(гПа)
Тmin
(С)
Tmax
(С)
R
(мм)
R24
(мм)
S
(см)
16 13.08 СЗ 6 н/о н/о +16.6 +9.6 63 +16 +16 1020.8 1017.1
17 13.08 СЗ 7 н/о н/о +16.5 +9.1 62 +15 +15 1020.9 1017.2
18 13.08 СЗ 6 н/о н/о +16.4 +9.0 62 +15 +15 1021.2 1017.5 +16.2 +16.9
20 13.08 С 5 н/о н/о +16.2 +8.9 62 +15 +15 1022.0 1018.3
19 13.08 СЗ 5 н/о н/о +16.2 +9.7 65 +15 +15 1021.6 1017.9
21 13.08 С 3 н/о н/о +16.1 +10.0 67 +16 +16 1022.3 1018.6
22 13.08 С 2 н/о н/о +16.2 +10.1 67 +16 +16 1022.7 1018.9
23 13.08 С 1 н/о н/о +16.1 +10.0 67 +17 +17 1022.7 1019.0
00 14.08 СВ 1 н/о н/о +16.0 +9.9 67 +17 +17 1022.7 1019.0
02 14.08 В 2 н/о н/о +16.0 +10.2 68 +16 +16 1022.5 1018.8
01 14.08 В 2 н/о н/о +15.9 +10.1 68 +16 +16 1022.7 1019.0
03 14.08 ЮВ 3 н/о н/о +15.9 +10.3 69 +15 +15 1022.4 1018.6
04 14.08 ЮВ 5 н/о н/о +15.8 +9.9 68 +15 +15 1022.2 1018.5
05 14.08 ЮВ 6 н/о н/о +15.6 +10.1 70 +14 +14 1022.5 1018.8
06 14.08 ЮВ 6 н/о н/о +15.5 +10.7 73 +14 +14 1022.7 1019.0 +15.4 +16.7
08 14.08 ЮВ 7 н/о н/о +15.5 +10.8 74 +14 +14 1023.0 1019.3
07 14.08 ЮВ 7 н/о н/о +15.2 +10.9 75 +13 +13 1022.9 1019.2
09 14.08 ЮВ 7 н/о н/о +15.8 +10.5 71 +14 +14 1023.7 1020.0
10 14.08 ЮВ 6 н/о н/о +16.7 +9.9 64 +16 +16 1023.4 1019.7
11 14.08 ЮВ 5 н/о н/о +17.9 +10.1 60 +18 +18 1022.5 1018.8
12 14.08 В 3 н/о н/о +19.0 +9.6 54 +20 +20 1022.1 1018.4
14 14.08 В 6 н/о н/о +20.3 +10.4 53 +22 +22 комфорт 1021.0 1017.3
13 14.08 В 5 н/о н/о +19.8 +8.2 47 +21 +21 комфорт 1021.6 1017.9
15 14.08 В 7 н/о н/о +20.0 +11.3 57 +21 +21 комфорт 1020.5 1016.8
16 14.08 В 6 н/о н/о +20.4 +12.3 60 +22 +22 комфорт 1019.9 1016.3
17 14.08 В 5 н/о н/о +21.0 +12.1 57 +23 +23 комфорт 1019.3 1015.7
18 14.08 В 6 н/о н/о +20.5 +13.4 64 +23 +23 комфорт 1019.0 1015.3 +15.0 +21.5
20 14.08 В 9 н/о н/о +20.0 +13.5 66 +21 +21 комфорт 1018.9 1015.2
19 14.08 В 7 н/о н/о +20.3 +13.8 66 +22 +22 комфорт 1018.7 1015.1
21 14.08 В 10 н/о н/о +19.5 +13.3 67 +20 +20 1018.4 1014.8
22 14.08 В 8 н/о н/о +18.3 +14.1 76 +18 +18 1018.0 1014.3
23 14.08 В 9 н/о н/о +17.8 +14.2 79 +17 +17 1017.3 1013.6
00 15.08 ЮВ 10 н/о н/о +18.0 +14.4 79 +17 +17 1016.4 1012.7
02 15.08 ЮВ 6 н/о н/о +18.8 +14.9 78 +19 +19 1015.8 1012.1
01 15.08 ЮВ 7 н/о н/о +18.3 +14.9 81 +18 +18 1015.9 1012.3
03 15.08 ЮВ 6 н/о н/о +18.9 +15.0 78 +20 +20 1015.3 1011.6
04 15.08 ЮВ 8 н/о н/о +18.9 +14.1 74 +19 +19 1014.7 1011.0
05 15.08 ЮВ 8 н/о н/о +19.0 +14.0 73 +19 +19 1014.6 1010.9
06 15.08 ЮВ 8 н/о н/о +18.8 +14.1 74 +19 +19 1014.1 1010.4 +17.5 +21.2
08 15.08 ЮВ 6 н/о н/о +18.8 +14.6 77 +19 +19 1013.9 1010.3
07 15.08 Ю 8 н/о н/о +18.4 +14.0 76 +18 +18 1014.1 1010.5
09 15.08 ЮВ 7 н/о н/о +19.8 +15.6 77 +22 +22 комфорт 1013.8 1010.1
10 15.08 ЮВ 6 н/о н/о +21.0 +16.1 74 +24 +24 комфорт 1014.0 1010.4
11 15.08 Ю 6 н/о н/о +21.5 +17.6 78 +26 +26 душно 1013.6 1010.0
12 15.08 Ю 8 н/о н/о +22.4 +17.8 75 +27 +27 душно 1013.2 1009.6
14 15.08 СЗ 4 н/о н/о +21.6 +17.2 76 +26 +26 душно 1013.1 1009.5
13 15.08 Ю 4 н/о н/о +22.9 +17.0 69 +28 +28 душно 1013.1 1009.5
15 15.08 СЗ 4 н/о н/о +21.3 +17.0 76 +25 +25 комфорт 1013.3 1009.6
16 15.08 СЗ 4 н/о н/о +20.6 +17.2 81 +24 +24 комфорт 1013.5 1009.9
17 15.08 СЗ 4 н/о н/о +19.7 +17.3 86 +22 +22 комфорт 1013.1 1009.4
18 15.08 СЗ 6 н/о н/о +19.6 +16.3 81 +21 +21 комфорт 1013.2 1009.6 +18.1 +24.0
20 15.08 ЮЗ 5 н/о н/о +19.0 +17.8 93 +20 +20 1014.7 1011.0
19 15.08 СЗ 3 н/о н/о +19.1 +17.2 89 +21 +21 комфорт 1013.8 1010.2
21 15.08 З 4 н/о н/о +18.9 +17.5 92 +20 +20 1015.0 1011.4
22 15.08 СЗ 3 н/о н/о +18.7 +17.3 92 +20 +20 1015.2 1011.5
23 15.08 СЗ 4 н/о н/о +18.9 +16.0 83 +20 +20 1015.8 1012.2
00 16.08 СЗ 5 н/о н/о +18.5 +15.9 85 +19 +19 1016.1 1012.4
02 16.08 СЗ 4 н/о н/о +17.8 +16.3 91 +18 +18 1017.0 1013.3
01 16.08 СЗ 5 н/о н/о +18.2 +16.1 88 +18 +18 1016.4 1012.8
03 16.08 СЗ 7 н/о н/о +17.7 +15.4 86 +17 +17 1017.1 1013.4
04 16.08 СЗ 8 н/о н/о +17.4 +14.2 81 +16 +16 1017.4 1013.7
05 16.08 СЗ 8 н/о н/о +17.2 +13.9 81 +16 +16 1018.3 1014.6
06 16.08 СЗ 7 н/о н/о +17.4 +13.7 79 +16 +16 1019.2 1015.5 +17.2 +20.2
08 16.08 СЗ 4 н/о н/о +17.6 +14.2 80 +17 +17 1020.2 1016.5
07 16.08 СЗ 5 н/о н/о +17.5 +13.8 79 +17 +17 1019.7 1016.1
09 16.08 З 3 н/о н/о +17.9 +13.9 77 +18 +18 1021.2 1017.6
10 16.08 З 4 н/о н/о +18.0 +13.7 76 +18 +18 1021.6 1017.9
11 16.08 З 3 н/о н/о +18.2 +14.0 76 +19 +19 1021.0 1017.4
12 16.08 З 2 н/о н/о +18.5 +13.4 72 +20 +20 1021.1 1017.4
14 16.08 СВ 2 н/о н/о +22.5 +13.4 56 +25 +25 комфорт 1021.0 1017.4
13 16.08 СЗ 1 н/о н/о +19.2 +13.4 69 +22 +22 комфорт 1021.2 1017.5
15 16.08 В 3 н/о н/о +21.0 +12.8 59 +24 +24 комфорт 1020.8 1017.1
16 16.08 В 3 н/о н/о +20.0 +12.6 62 +22 +22 комфорт 1020.7 1017.1
17 16.08 В 3 н/о н/о +20.0 +12.9 64 +22 +22 комфорт 1020.6 1017.0
18 16.08 В 4 н/о н/о +19.8 +11.1 57 +21 +21 комфорт 1020.3 1016.6 +17.2 +22.5
20 16.08 ЮВ 6 н/о н/о +19.5 +11.9 61 +20 +20 1020.4 1016.7
19 16.08 В 6 н/о н/о +19.6 +10.5 56 +20 +20 1020.1 1016.4
21 16.08 ЮВ 6 н/о н/о +19.3 +12.1 63 +20 +20 1019.9 1016.2
22 16.08 Ю 7 н/о н/о +19.1 +12.0 63 +20 +20 1019.3 1015.7
23 16.08 ЮВ 8 н/о н/о +18.8 +11.6 63 +19 +19 1018.8 1015.1
00 17.08 ЮВ 9 н/о н/о +18.7 +11.9 65 +18 +18 1018.1 1014.4
02 17.08 ЮВ 8 н/о н/о +18.0 +12.3 69 +17 +17 1017.2 1013.6
01 17.08 ЮВ 8 н/о н/о +18.1 +12.2 68 +17 +17 1017.8 1014.2
03 17.08 ЮВ 7 н/о н/о +17.5 +13.0 75 +17 +17 1016.6 1012.9
04 17.08 ЮВ 7 н/о н/о +17.5 +13.1 75 +17 +17 1016.0 1012.3
05 17.08 ЮВ 8 н/о н/о +17.8 +13.7 77 +17 +17 1015.3 1011.6
06 17.08 ЮВ 8 н/о н/о +17.8 +14.0 78 +17 +17 1014.7 1011.0 +17.3 +20.0
08 17.08 Ю 9 н/о н/о +17.6 +14.9 84 +16 +16 1013.9 1010.2
07 17.08 Ю 8 н/о н/о +18.0 +14.6 81 +17 +17 1014.3 1010.7
09 17.08 Ю 8 н/о н/о +18.0 +15.4 85 +17 +17 1013.3 1009.7
10 17.08 Ю 9 н/о н/о +18.7 +16.0 84 +19 +19 1012.8 1009.1
11 17.08 Ю 10 н/о н/о +19.6 +16.4 82 +21 +21 комфорт 1012.5 1008.8
12 17.08 Ю 7 н/о н/о +19.5 +17.2 87 +21 +21 комфорт 1012.5 1008.9
14 17.08 Ю 7 н/о н/о +19.4 +16.8 85 +21 +21 комфорт 1011.8 1008.2
13 17.08 Ю 8 н/о н/о +19.2 +16.3 83 +20 +20 1012.0 1008.4
15 17.08 ЮЗ 8
{15}
н/о н/о +17.6 +16.9 96 +17 +17 1011.7 1008.0
16 17.08 ЮЗ 10 н/о н/о +18.1 +16.4 90 +17 +17 1011.5 1007.8
17 17.08 ЮЗ 9 н/о н/о +18.0 +16.4 90 +17 +17 1011.6 1007.9
18 17.08 ЮЗ 9
{15}
н/о н/о +18.1 +16.6 91 +17 +17 1011.8 1008.1 +17.4 +19.7
20 17.08 ЮЗ 8 н/о н/о +18.0 +17.2 95 +17 +17 1011.6 1007.9
19 17.08 ЮЗ 8 н/о н/о +18.2 +16.7 91 +18 +18 1011.6 1007.9
21 17.08 ЮЗ 10 н/о н/о +18.3 +17.4 94 +18 +18 1011.4 1007.8
22 17.08 ЮЗ 10 н/о н/о +18.3 +17.3 94 +18 +18 1011.2 1007.6
23 17.08 Ю 8 н/о н/о +18.1 +17.3 95 +17 +17 1011.2 1007.5
00 18.08 Ю 8 н/о н/о +18.2 +17.3 94 +18 +18 1011.0 1007.4
02 18.08 ЮЗ 9 н/о н/о +18.1 +16.9 93 +17 +17 1010.6 1006.9
01 18.08 ЮЗ 8 н/о н/о +18.3 +17.3 94 +18 +18 1010.8 1007.1
03 18.08 ЮЗ 9 н/о н/о +17.4 +16.6 95 +16 +16 1010.2 1006.6
04 18.08 ЮЗ 9 н/о н/о +17.2 +16.3 94 +16 +16 1010.2 1006.6
05 18.08 Ю 8 н/о н/о +16.9 +16.1 95 +16 +16 1010.1 1006.4
06 18.08 ЮЗ 8 н/о н/о +16.7 +15.9 95 +15 +15 1010.0 1006.3 +16.6 +18.4
08 18.08 ЮЗ 8 н/о н/о +16.7 +15.7 94 +15 +15 1010.0 1006.3
07 18.08 ЮЗ 9 н/о н/о +16.8 +15.9 94 +15 +15 1010.2 1006.5
09 18.08 ЮЗ 9 н/о н/о +17.0 +15.7 92 +16 +16 1010.1 1006.4
10 18.08 ЮЗ 8 н/о н/о +17.4 +15.8 90 +16 +16 1009.9 1006.2
11 18.08 ЮЗ 7 н/о н/о +18.0 +15.5 85 +17 +17 1009.6 1005.9
12 18.08 Ю 5 н/о н/о +19.1 +15.3 79 +20 +20 1009.4 1005.8
14 18.08 Ю 6 н/о н/о +20.2 +15.0 72 +22 +22 комфорт 1008.4 1004.8
13 18.08 Ю 7 н/о н/о +19.5 +15.2 76 +21 +21 комфорт 1009.0 1005.3
15 18.08 Ю 9 н/о н/о +19.9 +15.5 76 +22 +22 комфорт 1007.9 1004.3
16 18.08 Ю 10
{13}
н/о н/о +17.7 +13.9 78 +16 +16 1007.7 1004.1
17 18.08 Ю 10 н/о н/о +18.1 +14.7 81 +17 +17 1007.8 1004.2
18 18.08 Ю 9
{13}
н/о н/о +18.0 +16.3 90 +17 +17 1007.7 1004.1 +16.5 +20.2
20 18.08 З 8 н/о н/о +18.1 +14.5 79 +17 +17 1008.1 1004.5
19 18.08 З 10
{13}
н/о н/о +18.3 +14.3 77 +18 +18 1007.9 1004.3
21 18.08 З 7
{13}
н/о н/о +17.5 +13.5 77 +17 +17 1008.4 1004.8
22 18.08 ЮЗ 7 н/о н/о +17.4 +13.7 79 +16 +16 1008.3 1004.6
23 18.08 ЮЗ 9
{16}
н/о н/о +15.2 +12.6 84 +13 +13 1008.0 1004.3
00 19.08 З 5
{21}
н/о н/о +15.1 +11.3 78 +14 +14 1008.2 1004.5
02 19.08 ЮЗ 12
{14}
н/о н/о +13.7 +12.5 92 +10 +10 1008.7 1005.0
01 19.08 Ю 9 н/о н/о +14.7 +11.3 80 +12 +12 1008.9 1005.2
03 19.08 ЮЗ 12
{21}
н/о н/о +13.9 +12.2 89 +11 +11 1008.5 1004.8
04 19.08 ЮЗ 11
{14}
н/о н/о +13.3 +10.7 84 +10 +10 1009.0 1005.3
05 19.08 ЮЗ 13
{15}
н/о н/о +13.2 +11.1 87 +9 +9 1009.4 1005.7
06 19.08 ЮЗ 13
{21}
н/о н/о +13.2 +11.4 89 +9 +9 1009.3 1005.6 +12.8 +18.3
08 19.08 ЮЗ 12
{15}
н/о н/о +13.8 +11.4 85 +11 +11 1009.8 1006.1
07 19.08 ЮЗ 13
{16}
н/о н/о +13.7 +11.9 89 +10 +10 1009.8 1006.1
09 19.08 ЮЗ 12
{16}
н/о н/о +14.2 +11.1 82 +11 +11 1010.3 1006.6
10 19.08 ЮЗ 11
{15}
н/о н/о +14.6 +10.7 77 +12 +12 1010.8 1007.1
11 19.08 ЮЗ 10
{13}
н/о н/о +15.9 +11.4 75 +14 +14 1010.9 1007.2
12 19.08 ЮЗ 10
{16}
н/о н/о +17.1 +11.2 68 +16 +16 1011.3 1007.6
14 19.08 З 12
{14}
н/о н/о +17.6 +11.2 66 +16 +16 1011.9 1008.2
13 19.08 ЮЗ 11
{13}
н/о н/о +17.5 +10.9 65 +16 +16 1011.6 1008.0
15 19.08 З 17
{19}
н/о н/о +16.2 +12.6 79 +13 +13 1012.2 1008.5
16 19.08 ЮЗ 10
{18}
н/о н/о +16.1 +12.0 77 +14 +14 1013.2 1009.5
17 19.08 ЮЗ 9 н/о н/о +16.1 +13.3 83 +14 +14 1013.1 1009.4
18 19.08 ЮЗ 10
{19}
н/о н/о +15.6 +11.9 79 +13 +13 1013.9 1010.2 +12.8 +17.8
20 19.08 ЮЗ 11
{13}
н/о н/о +16.0 +11.4 74 +14 +14 1014.0 1010.3
19 19.08 ЮЗ 10 н/о н/о +15.7 +11.9 78 +14 +14 1013.8 1010.1
21 19.08 ЮЗ 13
{19}
н/о н/о +14.1 +11.6 85 +11 +11 1014.3 1010.6
22 19.08 ЮЗ 11
{13}
н/о н/о +14.2 +11.4 83 +11 +11 1014.5 1010.8
23 19.08 ЮЗ 10
{14}
н/о н/о +14.3 +11.5 83 +12 +12 1014.4 1010.7
00 20.08 ЮЗ 12
{19}
н/о н/о +14.6 +11.6 82 +12 +12 1014.3 1010.6
02 20.08 ЮЗ 12
{15}
н/о н/о +13.9 +11.9 88 +11 +11 1014.4 1010.7
01 20.08 ЮЗ 11
{15}
н/о н/о +14.4 +11.5 83 +12 +12 1014.6 1010.9
03 20.08 ЮЗ 12
{16}
н/о н/о +13.7 +12.0 89 +10 +10 1014.6 1010.9
04 20.08 ЮЗ 12
{14}
н/о н/о +13.7 +12.1 90 +10 +10 1014.6 1010.9
05 20.08 ЮЗ 13
{15}
н/о н/о +14.2 +12.1 87 +11 +11 1015.0 1011.3
06 20.08 ЮЗ 13
{16}
н/о н/о +13.8 +11.7 87 +10 +10 1014.6 1010.9 +13.5 +16.4
08 20.08 ЮЗ 14
{17}
н/о н/о +14.6 +13.5 93 +11 +11 1015.8 1012.1
07 20.08 ЮЗ 13
{15}
н/о н/о +14.7 +12.3 86 +12 +12 1015.1 1011.4
09 20.08 ЮЗ 13
{17}
н/о н/о +15.1 +13.2 88 +12 +12 1016.4 1012.7
10 20.08 ЮЗ 11
{17}
н/о н/о +15.3 +13.5 89 +13 +13 1016.7 1013.0
11 20.08 ЮЗ 14
{16}
н/о н/о +15.2 +13.9 92 +12 +12 1016.8 1013.1
12 20.08 ЮЗ 11
{17}
н/о н/о +16.2 +13.2 82 +14 +14 1017.4 1013.7
14 20.08 З 8 н/о н/о +15.3 +12.5 83 +13 +13 1018.6 1014.9
13 20.08 З 11
{18}
н/о н/о +14.9 +11.4 80 +12 +12 1018.2 1014.4

 

Местоположение метеостанции Leuchtturm Alte Weser (Германия): широта 53.87 долгота 8.13 высота над уровнем моря 32 м.

В архиве по умолчанию представлена погода в Leuchtturm Alte Weser за последнюю неделю. Архивные данные за месяц целиком и за предыдущие месяцы, начиная с января 2011 года, Вы можете получить, выбрав интересующий диапазон дат из раскрывающегося списка и нажав кнопку "Ввод!".

Внимание! Время в таблицах - всемирное. Для получения местного времени необходимо прибавить поправку, которая в Leuchtturm Alte Weser равна 1 ч.

Смотрите также архив погоды в соседних городах и на ближайших метеорологических станциях:

Погода в Nordholz (Германия) (37 км)
Погода в Cuxhaven (Германия) (37 км)
Погода в Helgoland (Германия) (38 км)
Погода в Wittmundhaven (Германия) (47 км)
Погода в Bremerhaven (Германия) (48 км)
Погода в Ufs Deutsche Bucht (Германия) (57 км)
Погода в St Peter-Ording (Германия) (60 км)
Погода в Elpersbuettel (Германия) (62 км)
Погода в Norderney Island (Германия) (67 км)
Погода в Bremervoerde (Германия) (80 км)

Пояснения к столбцам:

Ветер - указаны скорость ветра в м/с - средняя за 10 мин, порывы в срок и между сроками (в фигурных скобках) и направление, откуда дует ветер: С - северный, СВ - северо-восточный, В - восточный, ЮВ - юго-восточный, Ю - южный, ЮЗ - юго-западный, З - западный, СЗ - северо-западный.
Видимость - горизонтальная дальность видимости в метрах или километрах. При видимости от 1 до 10 км при отсутствии осадков обычно наблюдается дымка, при ухудшении видимости до 1 км и менее - туман. В сухую погоду видимость может ухудшаться дымом, пылью или мглою.
Явления - указаны атмосферные явления, наблюдавшиеся в срок или в последний час перед сроком; фигурными скобками обозначены явления, наблюдавшиеся между сроками (за 1-3 часа до срока); квадратными скобками обозначены град или гололедные отложения с указанием их диаметра в мм.
Облачность - указаны через наклонную черту общая и нижняя облачность в баллах и высота нижней границы облаков в метрах; квадратными скобками обозначены формы облаков: Ci - перистые, Cs - перисто-слоистые, Cc - перисто-кучевые, Ac - высококучевые, As - высокослоистые, Sc - слоисто-кучевые, Ns - слоисто-дождевые, Cu - кучевые, Cb - кучево-дождевые. Подробнее классификацию облаков см. в Атласе облаков (PDF).
T - Температура воздуха - температура, измеренная на высоте 2 м над землей.
Td - Температура точки росы - температура, при понижении до которой содержащийся в воздухе водяной пар достигнет насыщения.
f - Относительная влажность воздуха - влажноcть воздуха, измеренная на высоте 2 м над землей.
Te - Эффективная температура - температура, которую ощущает одетый по сезону человек в тени. Характеристика душности погоды. При расчете учитывается влияние влажности воздуха и скорости ветра на теплоощущения человека.
Tes - Эффективная температура на солнце - температура, которую ощущает человек, с поправкой на солнечный нагрев. Характеристика знойности погоды. Зависит от высоты солнца над горизонтом, облачности и скорости ветра. Ночью, в пасмурную погоду, а также при ветре 12 м/с и более поправка равна нулю.
P - Атмосферное давление - приведенное к уровню моря атмосферное давление.
Po - Атмосферное давление - измеренное на уровне метеостанции атмосферное давление.
Tmin - Минимальная температура - минимум температуры воздуха на высоте 2 м над землей.
Tmax - Максимальная температура - максимум температуры воздуха на высоте 2 м над землей.
R - Количество осадков - Количество выпавших осадков за период времени, мм. При наведении курсора мыши на число - период времени, за который выпало указанное количество осадков.
R24 - Количество осадков - Количество выпавших осадков за 24 часа, мм.
S - Снежный покров - Высота снежного покрова, см. При наведении курсора мыши на число - состояние снежного покрова и степень покрытия местности в баллах.